Вернуться в каталог

NUSAT-49

K.VON NEUMANN

АктивенНаукаSSO
NORAD 60500·PAYLOAD·🇦🇷 Argentina

Запущен Aug 16, 2024 с Vandenberg Space Force Base

Loading…

Ближайшие Пролёты (ближайшие 24 часа)

TLE

СвежийSource: Space-Track

Эпоха: Sep 13, 2026, 18:00 UTC

1 60500U 24149AJ  26256.75032637  .00005978  00000-0  20875-3 0  9999
2 60500  97.3734 337.4094 0002132  36.1097 324.0287 15.29959207115675

Отслеживайте NUSAT-49 в реальном времени с AllMySat

Download on the App Store